Time,TemperatureF,DewpointF,PressureIn,WindDirection,WindDirectionDegrees,WindSpeedMPH,WindSpeedGustMPH,Humidity,HourlyPrecipIn,Conditions,Clouds,dailyrainin,SoftwareType,DateUTC
2013-03-06 00:00:00,29.8,23.0,29.83,NE,43,4.0,-999.0,78,-99.99,,,0.00,ADS-WS1 bash script,2013-03-06 05:00:00,
2013-03-06 00:05:00,29.8,23.0,29.83,NNE,21,7.0,-999.0,78,-99.99,,,0.00,ADS-WS1 bash script,2013-03-06 05:05:00,
2013-03-06 00:10:00,29.6,23.0,29.83,WNW,290,4.0,-999.0,78,-99.99,,,0.00,ADS-WS1 bash script,2013-03-06 05:10:00,
2013-03-06 00:15:00,29.6,23.0,29.83,ENE,66,9.0,-999.0,79,-99.99,,,0.00,ADS-WS1 bash script,2013-03-06 05:15:00,
2013-03-06 00:25:00,29.6,23.0,29.83,East,88,11.0,-999.0,78,-99.99,,,0.00,ADS-WS1 bash script,2013-03-06 05:25:00,
2013-03-06 00:30:00,29.4,22.0,29.84,NE,43,5.0,-999.0,80,-99.99,,,0.00,ADS-WS1 bash script,2013-03-06 05:30:00,
2013-03-06 00:35:00,29.4,22.0,29.83,NE,43,3.0,-999.0,79,-99.99,,,0.00,ADS-WS1 bash script,2013-03-06 05:35:00,
2013-03-06 00:45:00,29.1,22.0,29.83,ENE,77,7.0,-999.0,80,-99.99,,,0.00,ADS-WS1 bash script,2013-03-06 05:45:00,
2013-03-06 00:50:00,29.1,22.0,29.84,NE,50,4.0,-999.0,79,-99.99,,,0.00,ADS-WS1 bash script,2013-03-06 05:50:00,
2013-03-06 00:55:00,29.1,22.0,29.84,NE,43,8.0,-999.0,80,-99.99,,,0.00,ADS-WS1 bash script,2013-03-06 05:55:00,
2013-03-06 01:00:00,29.1,22.0,29.84,NE,43,6.0,-999.0,80,-99.99,,,0.00,ADS-WS1 bash script,2013-03-06 06:00:00,
2013-03-06 01:05:00,29.1,22.0,29.84,NNE,26,6.0,-999.0,80,-99.99,,,0.00,ADS-WS1 bash script,2013-03-06 06:05:00,
2013-03-06 01:10:00,28.9,22.0,29.84,NE,43,11.0,-999.0,80,-99.99,,,0.00,ADS-WS1 bash script,2013-03-06 06:10:00,
2013-03-06 01:15:00,28.9,22.0,29.84,NNE,32,6.0,-999.0,80,-99.99,,,0.00,ADS-WS1 bash script,2013-03-06 06:15:00,
2013-03-06 01:20:00,28.9,22.0,29.84,NE,38,7.0,-999.0,80,-99.99,,,0.00,ADS-WS1 bash script,2013-03-06 06:20:00,
2013-03-06 01:25:00,28.9,22.0,29.84,North,9,5.0,-999.0,80,-99.99,,,0.00,ADS-WS1 bash script,2013-03-06 06:25:00,
2013-03-06 01:30:00,28.7,23.0,29.85,NNE,29,6.0,-999.0,81,-99.99,,,0.00,ADS-WS1 bash script,2013-03-06 06:30:00,
2013-03-06 01:40:00,28.7,22.0,29.84,NE,43,5.0,-999.0,80,-99.99,,,0.00,ADS-WS1 bash script,2013-03-06 06:40:00,
2013-03-06 01:45:00,28.7,23.0,29.85,NE,43,9.0,-999.0,81,-99.99,,,0.00,ADS-WS1 bash script,2013-03-06 06:45:00,
2013-03-06 01:50:00,28.7,23.0,29.86,NE,43,4.0,-999.0,82,-99.99,,,0.00,ADS-WS1 bash script,2013-03-06 06:50:00,
2013-03-06 02:00:00,28.5,22.0,29.85,ENE,71,2.0,-999.0,82,-99.99,,,0.00,ADS-WS1 bash script,2013-03-06 07:00:00,
2013-03-06 02:05:00,28.5,22.0,29.85,NE,43,5.0,-999.0,83,-99.99,,,0.00,ADS-WS1 bash script,2013-03-06 07:05:00,
2013-03-06 02:10:00,28.4,22.0,29.86,North,5,4.0,-999.0,82,-99.99,,,0.00,ADS-WS1 bash script,2013-03-06 07:10:00,
2013-03-06 02:15:00,28.4,22.0,29.86,NE,43,11.0,-999.0,82,-99.99,,,0.00,ADS-WS1 bash script,2013-03-06 07:15:00,
2013-03-06 02:20:00,28.4,22.0,29.86,NE,36,8.0,-999.0,83,-99.99,,,0.00,ADS-WS1 bash script,2013-03-06 07:20:00,
2013-03-06 02:25:00,28.5,22.0,29.86,NE,39,6.0,-999.0,83,-99.99,,,0.00,ADS-WS1 bash script,2013-03-06 07:25:00,
2013-03-06 02:30:00,28.5,23.0,29.86,NE,43,5.0,-999.0,84,-99.99,,,0.00,ADS-WS1 bash script,2013-03-06 07:30:00,
2013-03-06 02:35:00,28.5,22.0,29.87,NE,43,4.0,-999.0,83,-99.99,,,0.00,ADS-WS1 bash script,2013-03-06 07:35:00,
2013-03-06 02:40:00,28.7,24.0,29.87,NE,46,3.0,-999.0,84,-99.99,,,0.00,ADS-WS1 bash script,2013-03-06 07:40:00,
2013-03-06 02:45:00,28.7,24.0,29.86,NE,36,9.0,-999.0,84,-99.99,,,0.00,ADS-WS1 bash script,2013-03-06 07:45:00,
2013-03-06 02:55:00,28.7,24.0,29.87,NE,39,2.0,-999.0,84,-99.99,,,0.00,ADS-WS1 bash script,2013-03-06 07:55:00,
2013-03-06 03:00:00,28.7,24.0,29.86,NE,43,5.0,-999.0,84,-99.99,,,0.00,ADS-WS1 bash script,2013-03-06 08:00:00,
2013-03-06 03:05:00,28.9,24.0,29.87,NE,55,9.0,-999.0,85,-99.99,,,0.00,ADS-WS1 bash script,2013-03-06 08:05:00,
2013-03-06 03:10:00,28.9,24.0,29.87,NE,46,6.0,-999.0,85,-99.99,,,0.00,ADS-WS1 bash script,2013-03-06 08:10:00,
2013-03-06 03:15:00,28.9,24.0,29.87,NE,49,6.0,-999.0,84,-99.99,,,0.00,ADS-WS1 bash script,2013-03-06 08:15:00,
2013-03-06 03:25:00,28.9,24.0,29.86,NE,39,4.0,-999.0,84,-99.99,,,0.00,ADS-WS1 bash script,2013-03-06 08:25:00,
2013-03-06 03:30:00,28.9,24.0,29.86,NNE,31,3.0,-999.0,85,-99.99,,,0.00,ADS-WS1 bash script,2013-03-06 08:30:00,
2013-03-06 03:35:00,28.9,23.0,29.87,ENE,59,8.0,-999.0,83,-99.99,,,0.00,ADS-WS1 bash script,2013-03-06 08:35:00,
2013-03-06 03:40:00,28.9,24.0,29.87,NE,43,8.0,-999.0,84,-99.99,,,0.00,ADS-WS1 bash script,2013-03-06 08:40:00,
2013-03-06 03:45:00,28.9,24.0,29.87,NE,43,6.0,-999.0,85,-99.99,,,0.00,ADS-WS1 bash script,2013-03-06 08:45:00,
2013-03-06 03:50:00,28.9,24.0,29.87,NE,43,8.0,-999.0,84,-99.99,,,0.00,ADS-WS1 bash script,2013-03-06 08:50:00,
2013-03-06 03:55:00,28.9,24.0,29.87,NNE,21,10.0,-999.0,84,-99.99,,,0.00,ADS-WS1 bash script,2013-03-06 08:55:00,
2013-03-06 04:00:00,28.9,24.0,29.87,NE,39,6.0,-999.0,84,-99.99,,,0.00,ADS-WS1 bash script,2013-03-06 09:00:00,
2013-03-06 04:10:00,29.1,24.0,29.87,NE,39,9.0,-999.0,84,-99.99,,,0.00,ADS-WS1 bash script,2013-03-06 09:10:00,
2013-03-06 04:15:00,29.1,24.0,29.88,ENE,76,6.0,-999.0,84,-99.99,,,0.00,ADS-WS1 bash script,2013-03-06 09:15:00,
2013-03-06 04:20:00,29.1,24.0,29.88,NNE,29,9.0,-999.0,84,-99.99,,,0.00,ADS-WS1 bash script,2013-03-06 09:20:00,
2013-03-06 04:25:00,29.1,24.0,29.88,NE,46,7.0,-999.0,84,-99.99,,,0.00,ADS-WS1 bash script,2013-03-06 09:25:00,
2013-03-06 04:30:00,29.1,24.0,29.88,NE,36,5.0,-999.0,85,-99.99,,,0.00,ADS-WS1 bash script,2013-03-06 09:30:00,
2013-03-06 04:40:00,29.1,24.0,29.89,NE,43,7.0,-999.0,85,-99.99,,,0.00,ADS-WS1 bash script,2013-03-06 09:40:00,
2013-03-06 04:45:00,29.1,24.0,29.89,NE,43,9.0,-999.0,84,-99.99,,,0.00,ADS-WS1 bash script,2013-03-06 09:45:00,
2013-03-06 04:50:00,29.1,24.0,29.90,NE,50,6.0,-999.0,84,-99.99,,,0.00,ADS-WS1 bash script,2013-03-06 09:50:00,
2013-03-06 04:55:00,29.1,24.0,29.90,NE,47,3.0,-999.0,84,-99.99,,,0.00,ADS-WS1 bash script,2013-03-06 09:55:00,
2013-03-06 05:00:00,28.9,24.0,29.91,NNE,32,3.0,-999.0,84,-99.99,,,0.00,ADS-WS1 bash script,2013-03-06 10:00:00,
2013-03-06 05:05:00,28.9,24.0,29.91,NE,42,4.0,-999.0,85,-99.99,,,0.00,ADS-WS1 bash script,2013-03-06 10:05:00,
2013-03-06 05:10:00,28.9,24.0,29.91,North,0,4.0,-999.0,84,-99.99,,,0.00,ADS-WS1 bash script,2013-03-06 10:10:00,
2013-03-06 05:15:00,29.1,24.0,29.91,NE,43,4.0,-999.0,84,-99.99,,,0.00,ADS-WS1 bash script,2013-03-06 10:15:00,
2013-03-06 05:25:00,28.9,24.0,29.92,North,0,6.0,-999.0,84,-99.99,,,0.00,ADS-WS1 bash script,2013-03-06 10:25:00,
2013-03-06 05:30:00,28.9,24.0,29.92,North,0,3.0,-999.0,85,-99.99,,,0.00,ADS-WS1 bash script,2013-03-06 10:30:00,
2013-03-06 05:35:00,28.9,24.0,29.93,NE,43,7.0,-999.0,86,-99.99,,,0.00,ADS-WS1 bash script,2013-03-06 10:35:00,
2013-03-06 05:40:00,28.9,24.0,29.93,NNE,26,5.0,-999.0,84,-99.99,,,0.00,ADS-WS1 bash script,2013-03-06 10:40:00,
2013-03-06 05:50:00,28.7,24.0,29.94,NE,43,3.0,-999.0,85,-99.99,,,0.00,ADS-WS1 bash script,2013-03-06 10:50:00,
2013-03-06 05:55:00,28.7,24.0,29.94,NE,43,6.0,-999.0,85,-99.99,,,0.00,ADS-WS1 bash script,2013-03-06 10:55:00,
2013-03-06 06:00:00,28.7,24.0,29.94,NE,43,3.0,-999.0,85,-99.99,,,0.00,ADS-WS1 bash script,2013-03-06 11:00:00,
2013-03-06 06:05:00,28.7,24.0,29.94,NE,43,3.0,-999.0,86,-99.99,,,0.00,ADS-WS1 bash script,2013-03-06 11:05:00,
2013-03-06 06:10:00,28.7,24.0,29.94,NE,43,5.0,-999.0,86,-99.99,,,0.00,ADS-WS1 bash script,2013-03-06 11:10:00,
2013-03-06 06:15:00,28.5,23.0,29.95,NNE,14,4.0,-999.0,86,-99.99,,,0.00,ADS-WS1 bash script,2013-03-06 11:15:00,
2013-03-06 06:20:00,28.5,24.0,29.95,NE,36,7.0,-999.0,87,-99.99,,,0.00,ADS-WS1 bash script,2013-03-06 11:20:00,
2013-03-06 06:25:00,28.5,23.0,29.95,NE,43,4.0,-999.0,85,-99.99,,,0.00,ADS-WS1 bash script,2013-03-06 11:25:00,
2013-03-06 06:30:00,28.5,23.0,29.95,North,5,4.0,-999.0,86,-99.99,,,0.00,ADS-WS1 bash script,2013-03-06 11:30:00,
2013-03-06 06:35:00,28.5,23.0,29.96,North,0,5.0,-999.0,86,-99.99,,,0.00,ADS-WS1 bash script,2013-03-06 11:35:00,
2013-03-06 06:40:00,28.5,23.0,29.96,NNE,21,6.0,-999.0,86,-99.99,,,0.00,ADS-WS1 bash script,2013-03-06 11:40:00,
2013-03-06 06:45:00,28.5,23.0,29.96,NE,43,8.0,-999.0,85,-99.99,,,0.00,ADS-WS1 bash script,2013-03-06 11:45:00,
2013-03-06 06:50:00,28.5,23.0,29.97,NE,43,3.0,-999.0,86,-99.99,,,0.00,ADS-WS1 bash script,2013-03-06 11:50:00,
2013-03-06 06:55:00,28.5,23.0,29.97,NNE,21,5.0,-999.0,86,-99.99,,,0.00,ADS-WS1 bash script,2013-03-06 11:55:00,
2013-03-06 07:00:00,28.4,24.0,29.97,NE,43,3.0,-999.0,87,-99.99,,,0.00,ADS-WS1 bash script,2013-03-06 12:00:00,
2013-03-06 07:05:00,28.4,24.0,29.98,NE,43,3.0,-999.0,87,-99.99,,,0.00,ADS-WS1 bash script,2013-03-06 12:05:00,
2013-03-06 07:10:00,28.4,24.0,29.98,North,0,3.0,-999.0,87,-99.99,,,0.00,ADS-WS1 bash script,2013-03-06 12:10:00,
2013-03-06 07:15:00,28.5,23.0,29.98,NE,35,4.0,-999.0,86,-99.99,,,0.00,ADS-WS1 bash script,2013-03-06 12:15:00,
2013-03-06 07:20:00,28.5,24.0,29.99,NNE,21,5.0,-999.0,88,-99.99,,,0.00,ADS-WS1 bash script,2013-03-06 12:20:00,
2013-03-06 07:30:00,28.7,24.0,29.99,NNE,14,4.0,-999.0,86,-99.99,,,0.00,ADS-WS1 bash script,2013-03-06 12:30:00,
2013-03-06 07:35:00,28.9,24.0,30.00,NNE,32,2.0,-999.0,86,-99.99,,,0.00,ADS-WS1 bash script,2013-03-06 12:35:00,
2013-03-06 07:40:00,28.9,25.0,30.00,NNE,29,4.0,-999.0,87,-99.99,,,0.00,ADS-WS1 bash script,2013-03-06 12:40:00,
2013-03-06 07:45:00,28.9,24.0,30.00,North,0,3.0,-999.0,86,-99.99,,,0.00,ADS-WS1 bash script,2013-03-06 12:45:00,
2013-03-06 07:50:00,29.1,25.0,30.00,NNE,29,3.0,-999.0,87,-99.99,,,0.00,ADS-WS1 bash script,2013-03-06 12:50:00,
2013-03-06 08:00:00,29.6,25.0,30.01,North,0,3.0,-999.0,86,-99.99,,,0.00,ADS-WS1 bash script,2013-03-06 13:00:00,
2013-03-06 08:05:00,29.8,25.0,30.01,NE,43,4.0,-999.0,85,-99.99,,,0.00,ADS-WS1 bash script,2013-03-06 13:05:00,
2013-03-06 08:10:00,30.0,25.0,30.01,NE,43,5.0,-999.0,85,-99.99,,,0.00,ADS-WS1 bash script,2013-03-06 13:10:00,
2013-03-06 08:15:00,30.3,25.0,30.01,North,0,3.0,-999.0,84,-99.99,,,0.00,ADS-WS1 bash script,2013-03-06 13:15:00,
2013-03-06 08:20:00,30.9,26.0,30.01,NE,43,2.0,-999.0,84,-99.99,,,0.00,ADS-WS1 bash script,2013-03-06 13:20:00,
2013-03-06 08:25:00,31.2,25.0,30.02,NW,320,3.0,-999.0,83,-99.99,,,0.00,ADS-WS1 bash script,2013-03-06 13:25:00,
2013-03-06 08:30:00,31.6,26.0,30.02,NNW,343,3.0,-999.0,82,-99.99,,,0.00,ADS-WS1 bash script,2013-03-06 13:30:00,
2013-03-06 08:35:00,32.0,26.0,30.03,NE,43,5.0,-999.0,82,-99.99,,,0.00,ADS-WS1 bash script,2013-03-06 13:35:00,
2013-03-06 08:40:00,32.1,26.0,30.03,NE,43,6.0,-999.0,81,-99.99,,,0.00,ADS-WS1 bash script,2013-03-06 13:40:00,
2013-03-06 08:45:00,32.5,25.0,30.04,NNE,15,8.0,-999.0,80,-99.99,,,0.00,ADS-WS1 bash script,2013-03-06 13:45:00,
2013-03-06 08:50:00,32.8,26.0,30.04,NE,39,7.0,-999.0,80,-99.99,,,0.00,ADS-WS1 bash script,2013-03-06 13:50:00,
2013-03-06 08:55:00,33.2,26.0,30.04,NE,43,5.0,-999.0,80,-99.99,,,0.00,ADS-WS1 bash script,2013-03-06 13:55:00,
2013-03-06 09:00:00,33.6,27.0,30.04,NNE,14,4.0,-999.0,78,-99.99,,,0.00,ADS-WS1 bash script,2013-03-06 14:00:00,
2013-03-06 09:05:00,33.7,27.0,30.04,NE,49,7.0,-999.0,79,-99.99,,,0.00,ADS-WS1 bash script,2013-03-06 14:05:00,
2013-03-06 09:10:00,34.1,27.0,30.04,NE,39,5.0,-999.0,78,-99.99,,,0.00,ADS-WS1 bash script,2013-03-06 14:10:00,
2013-03-06 09:15:00,34.3,27.0,30.04,NE,53,4.0,-999.0,78,-99.99,,,0.00,ADS-WS1 bash script,2013-03-06 14:15:00,
2013-03-06 09:20:00,34.5,26.0,30.05,NNE,26,4.0,-999.0,77,-99.99,,,0.00,ADS-WS1 bash script,2013-03-06 14:20:00,
2013-03-06 09:25:00,34.8,27.0,30.05,NNE,16,4.0,-999.0,76,-99.99,,,0.00,ADS-WS1 bash script,2013-03-06 14:25:00,
2013-03-06 09:30:00,35.2,27.0,30.05,NE,43,8.0,-999.0,76,-99.99,,,0.00,ADS-WS1 bash script,2013-03-06 14:30:00,
2013-03-06 09:35:00,35.5,28.0,30.05,East,88,4.0,-999.0,76,-99.99,,,0.00,ADS-WS1 bash script,2013-03-06 14:35:00,
2013-03-06 09:40:00,35.5,27.0,30.06,NE,36,6.0,-999.0,75,-99.99,,,0.00,ADS-WS1 bash script,2013-03-06 14:40:00,
2013-03-06 09:45:00,35.7,27.0,30.06,NE,50,5.0,-999.0,75,-99.99,,,0.00,ADS-WS1 bash script,2013-03-06 14:45:00,
2013-03-06 09:50:00,35.9,27.0,30.06,NNE,31,10.0,-999.0,74,-99.99,,,0.00,ADS-WS1 bash script,2013-03-06 14:50:00,
2013-03-06 09:55:00,36.1,27.0,30.06,ENE,74,0.0,-999.0,74,-99.99,,,0.00,ADS-WS1 bash script,2013-03-06 14:55:00,
2013-03-06 10:00:00,36.4,27.0,30.06,NE,43,3.0,-999.0,74,-99.99,,,0.00,ADS-WS1 bash script,2013-03-06 15:00:00,
2013-03-06 10:05:00,36.4,27.0,30.06,ENE,66,2.0,-999.0,73,-99.99,,,0.00,ADS-WS1 bash script,2013-03-06 15:05:00,
2013-03-06 10:15:00,36.8,27.0,30.07,NE,50,7.0,-999.0,72,-99.99,,,0.00,ADS-WS1 bash script,2013-03-06 15:15:00,
2013-03-06 10:20:00,37.2,27.0,30.07,ENE,66,5.0,-999.0,71,-99.99,,,0.00,ADS-WS1 bash script,2013-03-06 15:20:00,
2013-03-06 10:30:00,37.5,28.0,30.07,NE,49,8.0,-999.0,71,-99.99,,,0.00,ADS-WS1 bash script,2013-03-06 15:30:00,
2013-03-06 10:35:00,37.9,28.0,30.07,ENE,60,4.0,-999.0,71,-99.99,,,0.00,ADS-WS1 bash script,2013-03-06 15:35:00,
2013-03-06 10:40:00,38.2,27.0,30.07,NE,36,2.0,-999.0,69,-99.99,,,0.00,ADS-WS1 bash script,2013-03-06 15:40:00,
2013-03-06 10:50:00,39.0,28.0,30.07,East,101,5.0,-999.0,68,-99.99,,,0.00,ADS-WS1 bash script,2013-03-06 15:50:00,
2013-03-06 11:00:00,39.0,28.0,30.08,East,83,5.0,-999.0,68,-99.99,,,0.00,ADS-WS1 bash script,2013-03-06 16:00:00,
2013-03-06 11:05:00,39.7,29.0,30.08,ENE,59,2.0,-999.0,67,-99.99,,,0.00,ADS-WS1 bash script,2013-03-06 16:05:00,
2013-03-06 11:15:00,39.5,28.0,30.08,East,91,1.0,-999.0,66,-99.99,,,0.00,ADS-WS1 bash script,2013-03-06 16:15:00,
2013-03-06 11:20:00,39.7,29.0,30.07,NE,43,8.0,-999.0,67,-99.99,,,0.00,ADS-WS1 bash script,2013-03-06 16:20:00,
2013-03-06 11:25:00,39.7,28.0,30.08,NE,46,3.0,-999.0,65,-99.99,,,0.00,ADS-WS1 bash script,2013-03-06 16:25:00,
2013-03-06 11:30:00,39.9,28.0,30.08,NE,53,6.0,-999.0,66,-99.99,,,0.00,ADS-WS1 bash script,2013-03-06 16:30:00,
2013-03-06 11:35:00,39.7,28.0,30.08,East,95,2.0,-999.0,66,-99.99,,,0.00,ADS-WS1 bash script,2013-03-06 16:35:00,
2013-03-06 11:40:00,40.0,28.0,30.08,ENE,71,2.0,-999.0,65,-99.99,,,0.00,ADS-WS1 bash script,2013-03-06 16:40:00,
2013-03-06 11:45:00,40.0,28.0,30.08,NE,53,3.0,-999.0,65,-99.99,,,0.00,ADS-WS1 bash script,2013-03-06 16:45:00,
2013-03-06 11:50:00,40.2,28.0,30.08,NNE,25,1.0,-999.0,65,-99.99,,,0.00,ADS-WS1 bash script,2013-03-06 16:50:00,
2013-03-06 11:55:00,40.0,28.0,30.08,East,98,4.0,-999.0,65,-99.99,,,0.00,ADS-WS1 bash script,2013-03-06 16:55:00,
2013-03-06 12:00:00,40.4,28.0,30.08,NE,46,5.0,-999.0,65,-99.99,,,0.00,ADS-WS1 bash script,2013-03-06 17:00:00,
2013-03-06 12:05:00,40.2,28.0,30.08,NE,46,3.0,-999.0,65,-99.99,,,0.00,ADS-WS1 bash script,2013-03-06 17:05:00,
2013-03-06 12:10:00,40.4,28.0,30.09,NE,50,4.0,-999.0,65,-99.99,,,0.00,ADS-WS1 bash script,2013-03-06 17:10:00,
2013-03-06 12:15:00,40.6,29.0,30.08,NNE,26,2.0,-999.0,64,-99.99,,,0.00,ADS-WS1 bash script,2013-03-06 17:15:00,
2013-03-06 12:20:00,40.8,29.0,30.09,ENE,77,3.0,-999.0,65,-99.99,,,0.00,ADS-WS1 bash script,2013-03-06 17:20:00,
2013-03-06 12:25:00,40.9,28.0,30.09,ENE,60,2.0,-999.0,62,-99.99,,,0.00,ADS-WS1 bash script,2013-03-06 17:25:00,
2013-03-06 12:30:00,41.1,28.0,30.09,NE,43,0.0,-999.0,62,-99.99,,,0.00,ADS-WS1 bash script,2013-03-06 17:30:00,
2013-03-06 12:35:00,41.7,30.0,30.09,ENE,66,3.0,-999.0,64,-99.99,,,0.00,ADS-WS1 bash script,2013-03-06 17:35:00,
2013-03-06 12:40:00,41.7,28.0,30.09,South,184,1.0,-999.0,61,-99.99,,,0.00,ADS-WS1 bash script,2013-03-06 17:40:00,
2013-03-06 12:45:00,41.5,29.0,30.09,North,352,2.0,-999.0,62,-99.99,,,0.00,ADS-WS1 bash script,2013-03-06 17:45:00,
2013-03-06 12:50:00,41.3,27.0,30.10,WSW,258,0.0,-999.0,61,-99.99,,,0.00,ADS-WS1 bash script,2013-03-06 17:50:00,
2013-03-06 12:55:00,41.1,28.0,30.10,North,5,2.0,-999.0,63,-99.99,,,0.00,ADS-WS1 bash script,2013-03-06 17:55:00,
2013-03-06 13:00:00,41.1,28.0,30.10,NNE,21,2.0,-999.0,62,-99.99,,,0.00,ADS-WS1 bash script,2013-03-06 18:00:00,
2013-03-06 13:05:00,40.9,28.0,30.11,NNE,19,2.0,-999.0,63,-99.99,,,0.00,ADS-WS1 bash script,2013-03-06 18:05:00,
2013-03-06 13:15:00,40.9,29.0,30.11,NNW,330,2.0,-999.0,64,-99.99,,,0.00,ADS-WS1 bash script,2013-03-06 18:15:00,
2013-03-06 13:20:00,40.9,29.0,30.11,North,0,1.0,-999.0,65,-99.99,,,0.00,ADS-WS1 bash script,2013-03-06 18:20:00,
2013-03-06 13:25:00,40.8,29.0,30.11,NW,309,0.0,-999.0,64,-99.99,,,0.00,ADS-WS1 bash script,2013-03-06 18:25:00,
2013-03-06 13:30:00,40.9,28.0,30.11,NNW,337,4.0,-999.0,63,-99.99,,,0.00,ADS-WS1 bash script,2013-03-06 18:30:00,
2013-03-06 13:40:00,40.9,28.0,30.10,NE,43,1.0,-999.0,62,-99.99,,,0.00,ADS-WS1 bash script,2013-03-06 18:40:00,
2013-03-06 13:45:00,40.9,28.0,30.10,North,355,2.0,-999.0,63,-99.99,,,0.00,ADS-WS1 bash script,2013-03-06 18:45:00,
2013-03-06 13:50:00,41.1,28.0,30.10,North,0,3.0,-999.0,63,-99.99,,,0.00,ADS-WS1 bash script,2013-03-06 18:50:00,
2013-03-06 13:55:00,41.1,28.0,30.10,North,0,3.0,-999.0,62,-99.99,,,0.00,ADS-WS1 bash script,2013-03-06 18:55:00,
2013-03-06 14:00:00,41.1,28.0,30.10,NW,313,3.0,-999.0,62,-99.99,,,0.00,ADS-WS1 bash script,2013-03-06 19:00:00,
2013-03-06 14:05:00,41.3,29.0,30.10,NNE,21,2.0,-999.0,64,-99.99,,,0.00,ADS-WS1 bash script,2013-03-06 19:05:00,
2013-03-06 14:15:00,41.3,29.0,30.10,North,352,2.0,-999.0,64,-99.99,,,0.00,ADS-WS1 bash script,2013-03-06 19:15:00,
2013-03-06 14:25:00,41.3,28.0,30.11,NW,324,2.0,-999.0,63,-99.99,,,0.00,ADS-WS1 bash script,2013-03-06 19:25:00,
2013-03-06 14:30:00,41.3,29.0,30.10,North,0,2.0,-999.0,64,-99.99,,,0.00,ADS-WS1 bash script,2013-03-06 19:30:00,
2013-03-06 14:40:00,41.3,28.0,30.10,NW,313,2.0,-999.0,63,-99.99,,,0.00,ADS-WS1 bash script,2013-03-06 19:40:00,
2013-03-06 14:45:00,41.3,27.0,30.11,NE,38,1.0,-999.0,61,-99.99,,,0.00,ADS-WS1 bash script,2013-03-06 19:45:00,
2013-03-06 14:55:00,41.3,28.0,30.10,WNW,302,1.0,-999.0,62,-99.99,,,0.00,ADS-WS1 bash script,2013-03-06 19:55:00,
2013-03-06 15:00:00,41.3,28.0,30.10,NE,43,1.0,-999.0,63,-99.99,,,0.00,ADS-WS1 bash script,2013-03-06 20:00:00,
2013-03-06 15:10:00,41.1,28.0,30.11,NW,324,0.0,-999.0,62,-99.99,,,0.00,ADS-WS1 bash script,2013-03-06 20:10:00,
2013-03-06 15:15:00,41.1,28.0,30.11,NNE,32,2.0,-999.0,63,-99.99,,,0.00,ADS-WS1 bash script,2013-03-06 20:15:00,
2013-03-06 15:25:00,41.1,29.0,30.11,NW,313,2.0,-999.0,64,-99.99,,,0.00,ADS-WS1 bash script,2013-03-06 20:25:00,
2013-03-06 15:35:00,41.5,29.0,30.11,NNE,26,3.0,-999.0,62,-99.99,,,0.00,ADS-WS1 bash script,2013-03-06 20:35:00,
2013-03-06 15:40:00,41.3,27.0,30.11,NNE,29,2.0,-999.0,61,-99.99,,,0.00,ADS-WS1 bash script,2013-03-06 20:40:00,
2013-03-06 15:50:00,41.3,29.0,30.12,North,0,2.0,-999.0,64,-99.99,,,0.00,ADS-WS1 bash script,2013-03-06 20:50:00,
2013-03-06 16:00:00,40.8,29.0,30.11,NE,35,5.0,-999.0,65,-99.99,,,0.00,ADS-WS1 bash script,2013-03-06 21:00:00,
2013-03-06 16:10:00,40.6,29.0,30.11,NW,313,0.0,-999.0,66,-99.99,,,0.00,ADS-WS1 bash script,2013-03-06 21:10:00,
2013-03-06 16:15:00,40.6,30.0,30.11,NNW,343,2.0,-999.0,68,-99.99,,,0.00,ADS-WS1 bash script,2013-03-06 21:15:00,
2013-03-06 16:20:00,40.4,29.0,30.11,NNW,343,2.0,-999.0,67,-99.99,,,0.00,ADS-WS1 bash script,2013-03-06 21:20:00,
2013-03-06 16:25:00,40.4,28.0,30.12,North,350,2.0,-999.0,66,-99.99,,,0.00,ADS-WS1 bash script,2013-03-06 21:25:00,
2013-03-06 16:35:00,40.4,28.0,30.12,WNW,302,4.0,-999.0,66,-99.99,,,0.00,ADS-WS1 bash script,2013-03-06 21:35:00,
2013-03-06 16:40:00,40.4,28.0,30.12,NW,324,1.0,-999.0,66,-99.99,,,0.00,ADS-WS1 bash script,2013-03-06 21:40:00,
2013-03-06 16:45:00,40.2,29.0,30.13,NNW,328,3.0,-999.0,67,-99.99,,,0.00,ADS-WS1 bash script,2013-03-06 21:45:00,
2013-03-06 16:50:00,40.0,29.0,30.12,WNW,302,3.0,-999.0,67,-99.99,,,0.00,ADS-WS1 bash script,2013-03-06 21:50:00,
2013-03-06 17:00:00,39.7,29.0,30.13,NW,313,2.0,-999.0,68,-99.99,,,0.00,ADS-WS1 bash script,2013-03-06 22:00:00,
2013-03-06 17:05:00,39.7,29.0,30.13,North,0,2.0,-999.0,68,-99.99,,,0.00,ADS-WS1 bash script,2013-03-06 22:05:00,
2013-03-06 17:10:00,39.7,29.0,30.13,NNW,328,3.0,-999.0,69,-99.99,,,0.00,ADS-WS1 bash script,2013-03-06 22:10:00,
2013-03-06 17:15:00,39.7,29.0,30.13,NW,313,2.0,-999.0,69,-99.99,,,0.00,ADS-WS1 bash script,2013-03-06 22:15:00,
2013-03-06 17:20:00,39.5,29.0,30.14,NW,326,2.0,-999.0,69,-99.99,,,0.00,ADS-WS1 bash script,2013-03-06 22:20:00,
2013-03-06 17:30:00,39.3,28.0,30.14,NW,313,4.0,-999.0,69,-99.99,,,0.00,ADS-WS1 bash script,2013-03-06 22:30:00,
2013-03-06 17:35:00,39.1,29.0,30.14,NNW,328,3.0,-999.0,70,-99.99,,,0.00,ADS-WS1 bash script,2013-03-06 22:35:00,
2013-03-06 17:40:00,39.1,29.0,30.14,NNW,343,2.0,-999.0,70,-99.99,,,0.00,ADS-WS1 bash script,2013-03-06 22:40:00,
2013-03-06 17:50:00,38.6,29.0,30.15,North,350,3.0,-999.0,70,-99.99,,,0.00,ADS-WS1 bash script,2013-03-06 22:50:00,
2013-03-06 17:55:00,38.4,28.0,30.15,NW,326,2.0,-999.0,71,-99.99,,,0.00,ADS-WS1 bash script,2013-03-06 22:55:00,
2013-03-06 18:00:00,38.2,28.0,30.14,NW,323,3.0,-999.0,71,-99.99,,,0.00,ADS-WS1 bash script,2013-03-06 23:00:00,
2013-03-06 18:05:00,38.1,29.0,30.15,NW,313,3.0,-999.0,73,-99.99,,,0.00,ADS-WS1 bash script,2013-03-06 23:05:00,
2013-03-06 18:10:00,37.9,28.0,30.15,NW,313,1.0,-999.0,72,-99.99,,,0.00,ADS-WS1 bash script,2013-03-06 23:10:00,
2013-03-06 18:15:00,37.9,28.0,30.15,NW,306,3.0,-999.0,71,-99.99,,,0.00,ADS-WS1 bash script,2013-03-06 23:15:00,
2013-03-06 18:20:00,37.7,29.0,30.15,North,351,3.0,-999.0,74,-99.99,,,0.00,ADS-WS1 bash script,2013-03-06 23:20:00,
2013-03-06 18:30:00,37.5,29.0,30.16,North,0,3.0,-999.0,74,-99.99,,,0.00,ADS-WS1 bash script,2013-03-06 23:30:00,
2013-03-06 18:35:00,37.3,28.0,30.16,NNW,335,2.0,-999.0,74,-99.99,,,0.00,ADS-WS1 bash script,2013-03-06 23:35:00,
2013-03-06 18:40:00,37.2,28.0,30.16,NNW,343,2.0,-999.0,75,-99.99,,,0.00,ADS-WS1 bash script,2013-03-06 23:40:00,
2013-03-06 18:50:00,36.8,28.0,30.17,NW,306,2.0,-999.0,74,-99.99,,,0.00,ADS-WS1 bash script,2013-03-06 23:50:00,
2013-03-06 18:55:00,36.6,29.0,30.16,NW,323,5.0,-999.0,76,-99.99,,,0.00,ADS-WS1 bash script,2013-03-06 23:55:00,
2013-03-06 19:00:00,36.6,29.0,30.17,NW,306,3.0,-999.0,76,-99.99,,,0.00,ADS-WS1 bash script,2013-03-07 00:00:00,
2013-03-06 19:05:00,36.4,27.0,30.17,NW,320,3.0,-999.0,75,-99.99,,,0.00,ADS-WS1 bash script,2013-03-07 00:05:00,
2013-03-06 19:10:00,36.4,27.0,30.17,NNW,345,2.0,-999.0,75,-99.99,,,0.00,ADS-WS1 bash script,2013-03-07 00:10:00,
2013-03-06 19:15:00,36.4,27.0,30.17,NNW,335,2.0,-999.0,75,-99.99,,,0.00,ADS-WS1 bash script,2013-03-07 00:15:00,
2013-03-06 19:20:00,36.4,27.0,30.17,NNW,335,2.0,-999.0,75,-99.99,,,0.00,ADS-WS1 bash script,2013-03-07 00:20:00,
2013-03-06 19:25:00,36.4,28.0,30.17,NW,313,1.0,-999.0,76,-99.99,,,0.00,ADS-WS1 bash script,2013-03-07 00:25:00,
2013-03-06 19:30:00,36.3,28.0,30.17,WNW,285,1.0,-999.0,76,-99.99,,,0.00,ADS-WS1 bash script,2013-03-07 00:30:00,
2013-03-06 19:40:00,36.3,28.0,30.17,NNW,341,1.0,-999.0,76,-99.99,,,0.00,ADS-WS1 bash script,2013-03-07 00:40:00,
2013-03-06 19:50:00,36.3,28.0,30.18,NNW,330,2.0,-999.0,76,-99.99,,,0.00,ADS-WS1 bash script,2013-03-07 00:50:00,
2013-03-06 20:00:00,36.1,27.0,30.17,North,5,2.0,-999.0,75,-99.99,,,0.00,ADS-WS1 bash script,2013-03-07 01:00:00,
2013-03-06 20:05:00,35.9,28.0,30.18,NW,319,3.0,-999.0,76,-99.99,,,0.00,ADS-WS1 bash script,2013-03-07 01:05:00,
2013-03-06 20:10:00,35.9,28.0,30.17,NNW,343,2.0,-999.0,76,-99.99,,,0.00,ADS-WS1 bash script,2013-03-07 01:10:00,
2013-03-06 20:15:00,35.9,28.0,30.17,NW,320,0.0,-999.0,76,-99.99,,,0.00,ADS-WS1 bash script,2013-03-07 01:15:00,
2013-03-06 20:25:00,35.7,28.0,30.18,NNW,343,2.0,-999.0,77,-99.99,,,0.00,ADS-WS1 bash script,2013-03-07 01:25:00,
2013-03-06 20:30:00,35.7,28.0,30.18,NNW,328,2.0,-999.0,77,-99.99,,,0.00,ADS-WS1 bash script,2013-03-07 01:30:00,
2013-03-06 20:35:00,35.7,28.0,30.18,NW,313,1.0,-999.0,77,-99.99,,,0.00,ADS-WS1 bash script,2013-03-07 01:35:00,
2013-03-06 20:40:00,35.7,28.0,30.18,NW,313,1.0,-999.0,76,-99.99,,,0.00,ADS-WS1 bash script,2013-03-07 01:40:00,
2013-03-06 20:45:00,35.7,29.0,30.19,NNW,340,1.0,-999.0,78,-99.99,,,0.00,ADS-WS1 bash script,2013-03-07 01:45:00,
2013-03-06 20:50:00,35.7,28.0,30.18,NW,317,0.0,-999.0,77,-99.99,,,0.00,ADS-WS1 bash script,2013-03-07 01:50:00,
2013-03-06 20:55:00,35.7,29.0,30.19,NE,43,1.0,-999.0,79,-99.99,,,0.00,ADS-WS1 bash script,2013-03-07 01:55:00,
2013-03-06 21:00:00,35.5,29.0,30.19,NW,310,2.0,-999.0,79,-99.99,,,0.00,ADS-WS1 bash script,2013-03-07 02:00:00,
2013-03-06 21:10:00,35.5,29.0,30.19,NW,313,0.0,-999.0,78,-99.99,,,0.00,ADS-WS1 bash script,2013-03-07 02:10:00,
2013-03-06 21:20:00,35.4,28.0,30.19,NNW,340,1.0,-999.0,78,-99.99,,,0.00,ADS-WS1 bash script,2013-03-07 02:20:00,
2013-03-06 21:25:00,35.5,29.0,30.20,NW,313,0.0,-999.0,79,-99.99,,,0.00,ADS-WS1 bash script,2013-03-07 02:25:00,
2013-03-06 21:30:00,35.4,28.0,30.19,NNW,340,1.0,-999.0,78,-99.99,,,0.00,ADS-WS1 bash script,2013-03-07 02:30:00,
2013-03-06 21:35:00,35.4,28.0,30.20,NW,320,1.0,-999.0,78,-99.99,,,0.00,ADS-WS1 bash script,2013-03-07 02:35:00,
2013-03-06 21:40:00,35.4,28.0,30.19,NNW,331,1.0,-999.0,79,-99.99,,,0.00,ADS-WS1 bash script,2013-03-07 02:40:00,
2013-03-06 21:45:00,35.4,28.0,30.19,NW,324,1.0,-999.0,78,-99.99,,,0.00,ADS-WS1 bash script,2013-03-07 02:45:00,
2013-03-06 21:50:00,35.4,28.0,30.19,North,5,1.0,-999.0,79,-99.99,,,0.00,ADS-WS1 bash script,2013-03-07 02:50:00,
2013-03-06 21:55:00,35.4,28.0,30.20,NNW,348,0.0,-999.0,79,-99.99,,,0.00,ADS-WS1 bash script,2013-03-07 02:55:00,
2013-03-06 22:00:00,35.2,28.0,30.19,NNW,333,0.0,-999.0,80,-99.99,,,0.00,ADS-WS1 bash script,2013-03-07 03:00:00,
2013-03-06 22:10:00,35.2,28.0,30.19,North,0,0.0,-999.0,79,-99.99,,,0.00,ADS-WS1 bash script,2013-03-07 03:10:00,
2013-03-06 22:15:00,35.2,28.0,30.19,NNW,333,1.0,-999.0,80,-99.99,,,0.00,ADS-WS1 bash script,2013-03-07 03:15:00,
2013-03-06 22:20:00,35.0,28.0,30.19,North,2,1.0,-999.0,80,-99.99,,,0.00,ADS-WS1 bash script,2013-03-07 03:20:00,
2013-03-06 22:25:00,35.0,28.0,30.20,NNW,341,1.0,-999.0,80,-99.99,,,0.00,ADS-WS1 bash script,2013-03-07 03:25:00,
2013-03-06 22:30:00,35.0,29.0,30.20,NW,313,0.0,-999.0,81,-99.99,,,0.00,ADS-WS1 bash script,2013-03-07 03:30:00,
2013-03-06 22:35:00,35.0,28.0,30.20,NNW,333,0.0,-999.0,80,-99.99,,,0.00,ADS-WS1 bash script,2013-03-07 03:35:00,
2013-03-06 22:40:00,35.0,28.0,30.20,NW,313,0.0,-999.0,80,-99.99,,,0.00,ADS-WS1 bash script,2013-03-07 03:40:00,
2013-03-06 22:45:00,35.2,28.0,30.20,NW,313,0.0,-999.0,80,-99.99,,,0.00,ADS-WS1 bash script,2013-03-07 03:45:00,
2013-03-06 22:50:00,35.0,28.0,30.20,NW,313,0.0,-999.0,80,-99.99,,,0.00,ADS-WS1 bash script,2013-03-07 03:50:00,
2013-03-06 22:55:00,35.0,28.0,30.20,NW,313,0.0,-999.0,80,-99.99,,,0.00,ADS-WS1 bash script,2013-03-07 03:55:00,
2013-03-06 23:00:00,35.0,28.0,30.20,NW,323,1.0,-999.0,80,-99.99,,,0.00,ADS-WS1 bash script,2013-03-07 04:00:00,
2013-03-06 23:05:00,35.0,28.0,30.20,NW,307,0.0,-999.0,80,-99.99,,,0.00,ADS-WS1 bash script,2013-03-07 04:05:00,
2013-03-06 23:10:00,34.8,28.0,30.20,NW,313,0.0,-999.0,80,-99.99,,,0.00,ADS-WS1 bash script,2013-03-07 04:10:00,
2013-03-06 23:15:00,34.8,29.0,30.20,NW,313,0.0,-999.0,81,-99.99,,,0.00,ADS-WS1 bash script,2013-03-07 04:15:00,
2013-03-06 23:25:00,34.8,28.0,30.20,North,350,0.0,-999.0,80,-99.99,,,0.00,ADS-WS1 bash script,2013-03-07 04:25:00,
2013-03-06 23:30:00,34.8,28.0,30.20,North,0,0.0,-999.0,80,-99.99,,,0.00,ADS-WS1 bash script,2013-03-07 04:30:00,
2013-03-06 23:35:00,34.8,29.0,30.20,NNW,338,2.0,-999.0,81,-99.99,,,0.00,ADS-WS1 bash script,2013-03-07 04:35:00,
2013-03-06 23:40:00,34.8,29.0,30.20,North,350,0.0,-999.0,81,-99.99,,,0.00,ADS-WS1 bash script,2013-03-07 04:40:00,
2013-03-06 23:45:00,34.8,29.0,30.20,NW,309,1.0,-999.0,81,-99.99,,,0.00,ADS-WS1 bash script,2013-03-07 04:45:00,
2013-03-06 23:50:00,34.8,28.0,30.20,NNW,340,0.0,-999.0,80,-99.99,,,0.00,ADS-WS1 bash script,2013-03-07 04:50:00,
2013-03-06 23:55:00,34.8,28.0,30.20,NNW,344,2.0,-999.0,80,-99.99,,,0.00,ADS-WS1 bash script,2013-03-07 04:55:00,